Location: Demre
(36.2444°N, 29.9850°E)
Time: 05:26:42
(UTC+00:00)

YAOGAN 1 - Pass Details

Date: 11 March 2026
Orbit: 604 x 606 km, 97.8° (Epoch: 21 April)

Event Time Altitude Azimuth Distance (km) Brightness Sun altitude
Rises 16:58:38 0° 184° (S) 2,846 6.0 -11.9°
Reaches altitude 10° 17:00:55 10° 192° (SSW) 1,948 5.2 -12.3°
Maximum altitude 17:04:52 39° 262° (W) 919 4.1 -13.1°
Drops below altitude 10° 17:08:52 10° 331° (NNW) 1,961 5.6 -13.9°
Sets 17:11:10 0° 339° (NNW) 2,869 6.4 -14.4°
